This is the latest recevied weather packets stored in our database for station/object N2RDT. If no packets are shown the sender has not sent any weather packets the latest 10 day(s).
| Time | Temp. | Humidity | Pressure | Rain* | Wind** | Luminosity | Snow |
|---|---|---|---|---|---|---|---|
| 1777902064 | 16.67° C | 63% | 1017.5 hPa | 0 mm | - | 550 W/m² | - |
| 1777901763 | 16.11° C | 66% | 1017.4 hPa | 0 mm | - | 533 W/m² | - |
| 1777901459 | 16.11° C | 66% | 1017.3 hPa | 0 mm | - | 513 W/m² | - |
| 1777901157 | 15.56° C | 68% | 1017.6 hPa | 0 mm | - | 495 W/m² | - |
| 1777900855 | 15° C | 70% | 1017.5 hPa | 0 mm | - | 487 W/m² | - |
| 1777900552 | 14.44° C | 72% | 1017.5 hPa | 0 mm | - | 307 W/m² | - |
| 1777900249 | 13.89° C | 73% | 1017.7 hPa | 0 mm | - | 282 W/m² | - |
| 1777899945 | 14.44° C | 71% | 1017.8 hPa | 0 mm | - | 265 W/m² | - |
| 1777899642 | 14.44° C | 73% | 1017.7 hPa | 0 mm | - | 309 W/m² | - |
| 1777899339 | 14.44° C | 72% | 1017.8 hPa | 0 mm | - | 399 W/m² | - |
| 1777899037 | 14.44° C | 72% | 1017.7 hPa | 0 mm | - | 366 W/m² | - |
| 1777898733 | 14.44° C | 73% | 1017.9 hPa | 0 mm | - | 358 W/m² | - |
| 1777898431 | 13.89° C | 75% | 1017.7 hPa | 0 mm | - | 332 W/m² | - |
| 1777898129 | 13.89° C | 74% | 1017.8 hPa | 0 mm | - | 306 W/m² | - |
| 1777897826 | 13.89° C | 76% | 1017.8 hPa | 0 mm | - | 291 W/m² | - |
| 1777897521 | 13.33° C | 76% | 1017.8 hPa | 0 mm | - | 271 W/m² | - |
| 1777897217 | 13.33° C | 74% | 1017.8 hPa | 0 mm | - | 249 W/m² | - |
| 1777896914 | 13.33° C | 79% | 1017.8 hPa | 0 mm | - | 229 W/m² | - |
| 1777896611 | 13.33° C | 74% | 1017.6 hPa | 0 mm | - | 210 W/m² | - |
| 1777896308 | 13.33° C | 76% | 1017.7 hPa | 0 mm | - | 193 W/m² | - |
| 1777896006 | 12.78° C | 76% | 1017.7 hPa | 0 mm | - | 177 W/m² | - |
| 1777895704 | 12.78° C | 76% | 1017.7 hPa | 0 mm | - | 168 W/m² | - |
| 1777895400 | 12.78° C | 76% | 1017.8 hPa | 0 mm | - | 150 W/m² | - |
| 1777895098 | 12.22° C | 78% | 1018 hPa | 0 mm | - | 139 W/m² | - |
| 1777894795 | 11.67° C | 78% | 1017.8 hPa | 0 mm | - | 124 W/m² | - |
* Rain latest hour (hover to see other rain measurements)
** Current wind speed in m/s (hover to see current wind gust speed)